Regional Weather Roundup
Issued by NWS

Home | Current Version | Previous Version | Graphics & Text | Print | Product List | Glossary On
Versions: 1 2 3 4 5 6 7 8 9 10 11 12 13 14 15 16 17 18 19 20 21 22 23 24 25 26 27 28 29 30 31 32 33 34 35 36 37 38 39 40 41 42 43 44 45 46 47 48 49 50
279
ASUS43 KOAX 240202
RWRNE

WEATHER ROUNDUP FOR NEBRASKA
NATIONAL WEATHER SERVICE OMAHA NE
900 PM CDT TUE AUG 23 2016

NOTES: SATELLITE DATA IS BEING USED TO AUGMENT CLOUD COVER ABOVE
       12000 FEET.
       "FAIR" INDICATES FEW OR NO CLOUDS BELOW 12,000 FEET WITH NO
       SIGNIFICANT WEATHER AND/OR OBSTRUCTIONS TO VISIBILITY.

  * THESE STATIONS DO NOT REPORT WEATHER SUCH AS RAIN...SNOW OR FOG.

NEZ001>004-019>022-054>056-240300-
NEBRASKA PANHANDLE

CITY           SKY/WX    TMP DP  RH WIND       PRES   REMARKS
SCOTTSBLUFF    CLEAR     65  44  46 NE10      30.02R
ALLIANCE       CLOUDY    65  39  38 NE9       30.01R
CHADRON        PTCLDY    70  30  22 E7        29.99R
SIDNEY         CLEAR     72  36  26 NE9       30.05R
$$

NEZ057>060-069>072-079>082-240300-
SOUTHWEST NEBRASKA

CITY           SKY/WX    TMP DP  RH WIND       PRES   REMARKS
NORTH PLATTE   CLEAR     71  49  45 N7        29.93R
IMPERIAL       CLEAR     67  48  50 N7        29.97R
LEXINGTON      CLEAR     74  60  62 NW7       29.88R
MCCOOK         CLEAR     78  47  33 N14       29.89R
OGALLALA       CLEAR     69  43  39 NE8       29.98R
$$

NEZ005>010-023>029-035>040-094-240300-
NORTH CENTRAL NEBRASKA

CITY           SKY/WX    TMP DP  RH WIND       PRES   REMARKS
VALENTINE      CLEAR     72  42  34 N8        29.93
AINSWORTH      CLEAR     72  48  43 NW7       29.92R
BROKEN BOW     CLEAR     70  57  63 N9        29.89R
O`NEILL        CLEAR     74  58  57 NW8       29.84R
ORD            PTCLDY    76  56  49 NW8       29.83R
THEDFORD       CLEAR     70  47  44 NW6       29.96R
$$

NEZ041-046>049-061>064-073>077-083>087-240300-
SOUTH CENTRAL NEBRASKA

CITY           SKY/WX    TMP DP  RH WIND       PRES   REMARKS
GRAND ISLAND   CLEAR     82  70  66 S9        29.81R
AURORA         CLEAR     80  70  71 S8        29.81R
HASTINGS       CLEAR     80  69  69 S6        29.83R
HEBRON         CLOUDY    78  69  75 S12       29.81S
HOLDREGE       CLEAR     77  69  76 NW3       29.85R
KEARNEY *      CLEAR     81  70  69 NW3       29.83R
$$

NEZ011>018-030>034-042>045-240300-
NORTHEAST NEBRASKA

CITY           SKY/WX    TMP DP  RH WIND       PRES   REMARKS
NORFOLK        PTCLDY    76  72  87 W3        29.77S
ALBION         PTCLDY    76  72  86 CALM      29.81R
BLAIR          CLOUDY    77  71  84 W6G18     29.82R THUNDER
FREMONT        TSTM      74  70  87 NE21G28   29.84R
TEKAMAH        TSTM      68  65  90 SW13G24   29.88R FOG
WAYNE          CLOUDY    76  72  87 S7        29.78F
$$

NEZ050>053-065>068-078-088>093-240300-
SOUTHEAST NEBRASKA

CITY           SKY/WX    TMP DP  RH WIND       PRES   REMARKS
LINCOLN        PTCLDY    83  71  67 S18       29.78S
OMAHA EPPLEY   CLOUDY    82  71  69 SE20G28   29.78F
BEATRICE       CLOUDY    82  71  69 S12       29.83R
FALLS CITY     CLOUDY    81  72  74 S13       29.86S
NEBRASKA CITY  CLOUDY    79  72  78 S12G18    29.85R
$$

NEZ044-045-051>053-067-240300-
OMAHA AREA

CITY           SKY/WX    TMP DP  RH WIND       PRES   REMARKS
OMAHA EPPLEY   CLOUDY    82  71  69 SE20G28   29.78F
BLAIR          CLOUDY    77  71  84 W6G18     29.82R THUNDER
FREMONT        TSTM      74  70  87 NE21G28   29.84R
MILLARD        PTCLDY    82  73  74 S16G23    29.79F
OFFUTT AFB     MOCLDY    81  72  73 S17G24    29.79F
WAHOO          LGT RAIN  80  73  79 S7        29.80R
$$




USA.gov is the U.S. government's official web portal to all federal, state and local government web resources and services.